Regional Weather Roundup
Issued by NWS

Home | Current Version | Previous Version | Text Only | Print | Product List | Glossary On
Versions: 1 2 3 4 5 6 7 8 9 10 11 12 13 14 15 16 17 18 19 20 21 22 23 24 25 26 27 28 29 30 31 32 33 34 35 36 37 38 39 40 41 42 43 44 45 46 47 48 49 50
000
ASUS46 KSEW 250110
RWRWA

WASHINGTON REGIONAL WEATHER ROUNDUP
NATIONAL WEATHER SERVICE SEATTLE WA
600 PM PDT THU JUL 24 2014

NOTE:"FAIR" INDICATES FEW OR NO CLOUDS BELOW 12,000 FEET WITH NO
SIGNIFICANT WEATHER AND/OR OBSTRUCTIONS TO VISIBILITY.

WAZ505-507>509-250200-
SEATTLE, TACOMA, EVERETT, AND VICINITY

CITY           SKY/WX    TMP DP  RH WIND       PRES   REMARKS
EVERETT        CLOUDY    56  51  84 VRB5      30.23F
BOEING FIELD   PTSUNNY   64  54  69 VRB7G16   30.21R
RENTON         CLOUDY    62  57  83 N10       30.20S
SEATAC AIRPORT PTSUNNY   66  51  58 SW7       30.21S
JBLM-MCCHORD   PTSUNNY   70  51  50 W15       30.20F
PUYALLUP       FAIR      66  52  59 SW8       30.22S
JBLM-FT LEWIS  PTSUNNY   68  50  53 W8        30.20S
TACOMA NARROWS MOSUNNY   68  49  50 SW13      30.20S
$$

WAZ001-503-506-510-514-515-250200-
NORTH INTERIOR

CITY           SKY/WX    TMP DP  RH WIND       PRES   REMARKS
BELLINGHAM     MOSUNNY   66  50  56 S10       30.17S
FRIDAY HARBOR  SUNNY     66  47  50 W9G22     30.18F
EASTSOUND      MOSUNNY   66  48  52 SW8       30.15F
PORT ANGELES   SUNNY     60  50  69 NW12G21   30.21R
NAS WHIDBEY    PTSUNNY   63  50  62 SW14      30.20F
BURLINGTON     CLOUDY    64  54  68 S8        30.21S
$$

WAZ020-022-039-040-504-511-512-250200-
SOUTHWEST INTERIOR

CITY           SKY/WX    TMP DP  RH WIND       PRES   REMARKS
SHELTON        SUNNY     67  50  54 SW16G28   30.18S
OLYMPIA        PTSUNNY   67  48  50 W14       30.21S
CHEHALIS       CLOUDY    66  55  68 VRB3      30.23F
KELSO          CLOUDY    64  54  68 NW3       30.27S
VANCOUVER      CLOUDY    70  55  59 VRB6      30.21F
SCAPPOOSE, OR  CLOUDY    68  55  63 N8        30.21F
PORTLAND, OR   PTSUNNY   69  56  62 N8        30.21F
$$

WAZ021-516-517-250200-
WASHINGTON COAST

CITY           SKY/WX    TMP DP  RH WIND       PRES   REMARKS
FORKS          CLOUDY    61  52  72 W9        30.23F
HOQUIAM        CLOUDY    63  52  67 SW12      30.24F
ASTORIA, OR    MOSUNNY   64  53  67 W9        30.24F
$$

WAZ019-023-024-040-518-519-250200-
CASCADE MOUNTAINS AND COLUMBIA GORGE

CITY           SKY/WX    TMP DP  RH WIND       PRES   REMARKS
STAMPEDE PASS  NOT AVBL
TROUTDALE, OR  CLOUDY    68  54  60 E3        30.20F
THE DALLES, OR SUNNY     73  51  46 W17G23    30.15F
$$

WAZ026-027-041>044-520-521-250200-
EAST SLOPES

CITY           SKY/WX    TMP DP  RH WIND       PRES   REMARKS
OMAK           MOSUNNY   75  38  26 NW18G31   30.01S
WENATCHEE      SUNNY     76  43  30 NW16      30.05F
ELLENSBURG     FAIR      68  48  48 NW26G36   30.12S
YAKIMA         MOSUNNY   76  46  34 W13       30.08S
$$

WAZ028-034-035-250200-
COLUMBIA BASIN

CITY           SKY/WX    TMP DP  RH WIND       PRES   REMARKS
EPHRATA        MOSUNNY   77  42  28 W12G20    30.04F
MOSES LAKE     PTSUNNY   78  44  29 W12       30.05F
PASCO          SUNNY     81  47  30 SW15G21   30.05F
HERMISTON, OR  SUNNY     78  46  32 W15       30.07F
$$

WAZ036>038-250200-
NORTHEAST WASHINGTON

CITY           SKY/WX    TMP DP  RH WIND       PRES   REMARKS
SPOKANE GEIGER MOSUNNY   68  41  37 SW16G28   30.08F
SPOKANE FELTS  PTSUNNY   69  42  37 SW12G21   30.09F
FAIRCHILD AFB  MOSUNNY   66  43  43 SW16      30.08F
COEURDALENE,ID PTSUNNY   63  45  51 W9        30.09R
DEER PARK      CLOUDY    66  44  45 S8        30.08F
$$

WAZ029>033-250200-
SOUTHEAST WASHINGTON

CITY           SKY/WX    TMP DP  RH WIND       PRES   REMARKS
PULLMAN        SUNNY     68  40  35 W12       30.13F
LEWISTON, ID   SUNNY     76  41  28 NW16G25   30.06F
WALLA WALLA    SUNNY     76  40  27 W14       30.10F
PENDLETON, OR  SUNNY     76  41  28 W15       30.09F
$$


USA.gov is the U.S. government's official web portal to all federal, state and local government web resources and services.